TimePDT,TemperatureF,Dew PointF,Humidity,Sea Level PressureIn,VisibilityMPH,Wind Direction,Wind SpeedMPH,Gust SpeedMPH,PrecipitationIn,Events,Conditions,WindDirDegrees,DateUTC
12:15 AM,44.6,42.8,93,29.97,10.0,South,6.9,-,N/A,,Overcast,170,2011-11-03 07:15:00
12:35 AM,44.6,42.8,93,29.96,10.0,South,5.8,-,N/A,,Mostly Cloudy,170,2011-11-03 07:35:00
12:55 AM,42.8,42.8,100,29.96,10.0,South,6.9,-,N/A,,Scattered Clouds,170,2011-11-03 07:55:00
1:15 AM,42.8,42.8,100,29.96,10.0,South,4.6,-,N/A,,Clear,170,2011-11-03 08:15:00
1:35 AM,44.6,42.8,93,29.96,10.0,SSE,8.1,-,N/A,,Light Drizzle,160,2011-11-03 08:35:00
1:55 AM,44.6,42.8,93,29.96,10.0,South,6.9,-,N/A,,Mostly Cloudy,170,2011-11-03 08:55:00
2:15 AM,42.8,41.0,93,29.96,10.0,South,6.9,-,N/A,,Scattered Clouds,170,2011-11-03 09:15:00
2:35 AM,42.8,41.0,93,29.95,10.0,South,4.6,-,N/A,,Clear,170,2011-11-03 09:35:00
2:55 AM,42.8,41.0,93,29.94,10.0,ESE,4.6,-,N/A,,Scattered Clouds,120,2011-11-03 09:55:00
3:15 AM,41.0,39.2,93,29.94,10.0,Calm,Calm,-,N/A,,Clear,0,2011-11-03 10:15:00
3:35 AM,41.0,41.0,100,29.93,10.0,East,4.6,-,N/A,,Clear,100,2011-11-03 10:35:00
3:55 AM,41.0,39.2,93,29.93,10.0,ESE,3.5,-,N/A,,Clear,120,2011-11-03 10:55:00
4:15 AM,42.8,41.0,93,29.93,10.0,SSE,4.6,-,N/A,,Mostly Cloudy,150,2011-11-03 11:15:00
4:35 AM,42.8,41.0,93,29.93,10.0,South,6.9,-,N/A,,Overcast,170,2011-11-03 11:35:00
4:55 AM,42.8,41.0,93,29.92,10.0,SSE,5.8,-,N/A,,Scattered Clouds,150,2011-11-03 11:55:00
5:15 AM,42.8,39.2,87,29.92,10.0,SE,5.8,-,N/A,,Clear,140,2011-11-03 12:15:00
5:35 AM,42.8,41.0,93,29.92,10.0,SE,6.9,-,N/A,,Clear,140,2011-11-03 12:35:00
5:55 AM,42.8,39.2,87,29.92,10.0,SSE,6.9,-,N/A,,Clear,150,2011-11-03 12:55:00
6:15 AM,42.8,39.2,87,29.91,10.0,SSE,6.9,-,N/A,,Clear,150,2011-11-03 13:15:00
6:35 AM,42.8,39.2,87,29.91,10.0,SE,5.8,-,N/A,,Clear,130,2011-11-03 13:35:00
6:55 AM,41.0,39.2,93,29.91,10.0,East,4.6,-,N/A,,Clear,80,2011-11-03 13:55:00
7:15 AM,41.0,39.2,93,29.92,7.0,East,5.8,-,0.01,Rain,Rain,100,2011-11-03 14:15:00
7:35 AM,41.0,41.0,100,29.93,7.0,South,9.2,-,0.03,Rain,Rain,180,2011-11-03 14:35:00
7:55 AM,42.8,41.0,93,29.92,7.0,ESE,8.1,-,0.08,Rain,Heavy Rain,120,2011-11-03 14:55:00
8:15 AM,42.8,41.0,93,29.92,10.0,SE,9.2,-,N/A,,Mostly Cloudy,140,2011-11-03 15:15:00
8:35 AM,41.0,39.2,93,29.92,10.0,SE,5.8,-,N/A,,Clear,130,2011-11-03 15:35:00
8:55 AM,42.8,41.0,93,29.92,10.0,ESE,5.8,-,N/A,,Mostly Cloudy,110,2011-11-03 15:55:00
9:15 AM,42.8,41.0,93,29.92,10.0,ESE,5.8,-,N/A,,Overcast,110,2011-11-03 16:15:00
9:35 AM,41.0,39.2,93,29.92,10.0,East,4.6,-,N/A,,Scattered Clouds,90,2011-11-03 16:35:00
9:55 AM,42.8,41.0,93,29.91,10.0,Calm,Calm,-,N/A,,Clear,0,2011-11-03 16:55:00
10:15 AM,44.6,42.8,93,29.90,10.0,SE,4.6,-,N/A,,Scattered Clouds,140,2011-11-03 17:15:00
10:35 AM,46.4,42.8,87,29.90,10.0,SE,5.8,-,N/A,,Mostly Cloudy,130,2011-11-03 17:35:00
10:55 AM,48.2,42.8,82,29.90,10.0,SE,5.8,-,N/A,,Scattered Clouds,140,2011-11-03 17:55:00
11:15 AM,50.0,42.8,76,29.89,10.0,SE,6.9,-,N/A,,Mostly Cloudy,130,2011-11-03 18:15:00
11:35 AM,50.0,42.8,76,29.89,10.0,ESE,3.5,-,N/A,,Mostly Cloudy,120,2011-11-03 18:35:00
12:15 PM,50.0,42.8,76,29.89,10.0,ESE,3.5,-,N/A,,Mostly Cloudy,120,2011-11-03 19:15:00
12:35 PM,50.0,39.2,66,29.89,10.0,Calm,Calm,-,N/A,,Overcast,0,2011-11-03 19:35:00
12:55 PM,48.2,41.0,76,29.88,10.0,SW,8.1,-,N/A,,Overcast,230,2011-11-03 19:55:00
1:15 PM,48.2,42.8,82,29.88,10.0,SW,6.9,-,N/A,Rain,Light Rain,220,2011-11-03 20:15:00
1:35 PM,51.8,42.8,71,29.88,10.0,SW,11.5,-,N/A,,Mostly Cloudy,220,2011-11-03 20:35:00
1:55 PM,51.8,42.8,71,29.87,10.0,SW,12.7,-,N/A,,Overcast,220,2011-11-03 20:55:00
2:15 PM,51.8,41.0,67,29.87,10.0,SW,10.4,-,N/A,,Scattered Clouds,220,2011-11-03 21:15:00
3:15 PM,50.0,42.8,76,29.86,10.0,South,9.2,-,N/A,,Overcast,190,2011-11-03 22:15:00
3:35 PM,50.0,41.0,71,29.86,10.0,SSW,8.1,-,N/A,,Mostly Cloudy,210,2011-11-03 22:35:00
4:35 PM,48.2,41.0,76,29.86,10.0,ESE,3.5,-,N/A,,Mostly Cloudy,120,2011-11-03 23:35:00
4:55 PM,48.2,41.0,76,29.85,10.0,East,3.5,-,N/A,,Mostly Cloudy,90,2011-11-03 23:55:00
5:15 PM,46.4,41.0,81,29.85,10.0,East,4.6,-,N/A,,Mostly Cloudy,100,2011-11-04 00:15:00
5:35 PM,44.6,41.0,87,29.86,10.0,East,4.6,-,N/A,,Scattered Clouds,100,2011-11-04 00:35:00
5:55 PM,44.6,41.0,87,29.86,10.0,NNE,4.6,-,N/A,,Mostly Cloudy,20,2011-11-04 00:55:00
6:15 PM,44.6,41.0,87,29.87,10.0,NE,3.5,-,N/A,,Light Drizzle,50,2011-11-04 01:15:00
6:35 PM,44.6,41.0,87,29.87,10.0,Calm,Calm,-,N/A,Rain,Light Rain,0,2011-11-04 01:35:00
6:55 PM,44.6,42.8,93,29.87,10.0,Calm,Calm,-,0.01,Rain,Light Rain,0,2011-11-04 01:55:00
7:15 PM,42.8,41.0,93,29.87,10.0,ESE,3.5,-,N/A,,Overcast,120,2011-11-04 02:15:00
7:35 PM,42.8,41.0,93,29.87,10.0,East,3.5,-,N/A,,Mostly Cloudy,80,2011-11-04 02:35:00
7:55 PM,41.0,39.2,93,29.87,10.0,East,3.5,-,N/A,,Overcast,100,2011-11-04 02:55:00
8:15 PM,41.0,41.0,100,29.88,10.0,Calm,Calm,-,N/A,,Mostly Cloudy,0,2011-11-04 03:15:00
8:35 PM,41.0,39.2,93,29.88,7.0,East,4.6,-,N/A,,Scattered Clouds,80,2011-11-04 03:35:00
8:55 PM,41.0,39.2,93,29.88,10.0,ENE,3.5,-,N/A,,Clear,70,2011-11-04 03:55:00
9:35 PM,39.2,37.4,93,29.88,10.0,East,5.8,-,N/A,,Clear,90,2011-11-04 04:35:00
9:55 PM,37.4,37.4,100,29.89,7.0,East,3.5,-,N/A,,Clear,100,2011-11-04 04:55:00
10:15 PM,37.4,37.4,100,29.89,4.0,East,5.8,-,N/A,,Clear,90,2011-11-04 05:15:00
10:55 PM,37.4,37.4,100,29.89,5.0,East,5.8,-,N/A,,Clear,80,2011-11-04 05:55:00
11:35 PM,37.4,37.4,100,29.89,5.0,ENE,3.5,-,N/A,,Clear,70,2011-11-04 06:35:00
11:55 PM,35.6,35.6,100,29.90,0.8,East,5.8,-,N/A,,Mostly Cloudy,90,2011-11-04 06:55:00